Radiation Dose at Monitoring Post of Fukushima Daini Nuclear Power Station
Date,Time,MP-1(microSv/h),MP-2(microSv/h),MP-3(microSv/h),MP-4(microSv/h),MP-5(microSv/h),MP-6(microSv/h),MP-7(microSv/h),Wind Direction,Wind Velocity(m/s),Rain
2022/10/11,00:00,0.146,0.133,0.215,0.206,0.210,0.117,0.076,west,4.9,Yes
2022/10/11,00:10,0.147,0.133,0.214,0.208,0.210,0.117,0.075,west,4.8,Yes
2022/10/11,00:20,0.146,0.133,0.215,0.206,0.211,0.116,0.075,west,5.0,Yes
2022/10/11,00:30,0.148,0.133,0.215,0.207,0.209,0.118,0.075,west,5.0,No
2022/10/11,00:40,0.147,0.133,0.214,0.207,0.211,0.116,0.075,west,6.1,Yes
2022/10/11,00:50,0.146,0.132,0.215,0.206,0.211,0.117,0.076,west,5.7,No
2022/10/11,01:00,0.147,0.134,0.213,0.207,0.209,0.117,0.076,west-northwest,6.1,No
2022/10/11,01:10,0.146,0.133,0.215,0.206,0.211,0.117,0.075,west-northwest,5.7,Yes
2022/10/11,01:20,0.148,0.134,0.213,0.207,0.210,0.117,0.076,west-northwest,5.8,Yes
2022/10/11,01:30,0.148,0.134,0.214,0.206,0.212,0.116,0.076,west,5.2,Yes
2022/10/11,01:40,0.146,0.133,0.214,0.208,0.209,0.117,0.075,west-northwest,6.6,Yes
2022/10/11,01:50,0.148,0.134,0.215,0.207,0.213,0.118,0.076,west-northwest,7.8,Yes
2022/10/11,02:00,0.147,0.134,0.216,0.207,0.211,0.118,0.076,west-northwest,7.3,Yes
2022/10/11,02:10,0.148,0.133,0.214,0.208,0.212,0.117,0.076,west-northwest,6.8,Yes
2022/10/11,02:20,0.147,0.134,0.215,0.208,0.213,0.118,0.075,west-northwest,5.4,Yes
2022/10/11,02:30,0.148,0.135,0.214,0.209,0.211,0.117,0.077,west-northwest,4.6,Yes
2022/10/11,02:40,0.148,0.134,0.215,0.208,0.212,0.119,0.076,west-northwest,5.4,Yes
2022/10/11,02:50,0.149,0.135,0.214,0.209,0.210,0.119,0.077,west-northwest,4.9,Yes
2022/10/11,03:00,0.147,0.134,0.216,0.209,0.212,0.118,0.077,northwest,1.8,Yes
2022/10/11,03:10,0.149,0.135,0.215,0.209,0.211,0.120,0.077,north-northwest,1.9,Yes
2022/10/11,03:20,0.149,0.135,0.217,0.208,0.214,0.119,0.078,northwest,3.0,Yes
2022/10/11,03:30,0.149,0.135,0.216,0.209,0.212,0.120,0.078,northwest,3.0,Yes
2022/10/11,03:40,0.149,0.135,0.217,0.209,0.214,0.119,0.077,north-northwest,2.3,Yes
2022/10/11,03:50,0.149,0.135,0.215,0.210,0.211,0.120,0.079,north,2.7,Yes
2022/10/11,04:00,0.149,0.134,0.216,0.207,0.213,0.120,0.077,north-northwest,2.6,Yes
2022/10/11,04:10,0.148,0.134,0.214,0.209,0.212,0.119,0.077,northwest,2.7,Yes
2022/10/11,04:20,0.149,0.134,0.216,0.207,0.211,0.118,0.077,northwest,1.8,Yes
2022/10/11,04:30,0.148,0.135,0.215,0.208,0.210,0.119,0.078,north-northwest,1.0,Yes
2022/10/11,04:40,0.149,0.134,0.215,0.207,0.211,0.118,0.076,northwest,1.2,No
2022/10/11,04:50,0.146,0.135,0.213,0.207,0.212,0.118,0.077,north-northwest,1.4,No
2022/10/11,05:00,0.148,0.134,0.214,0.207,0.210,0.118,0.076,northwest,0.9,No
2022/10/11,05:10,0.146,0.134,0.213,0.209,0.211,0.118,0.076,northwest,1.6,No
2022/10/11,05:20,0.148,0.133,0.215,0.207,0.210,0.118,0.075,northwest,2.5,No
2022/10/11,05:30,0.146,0.134,0.214,0.208,0.212,0.116,0.076,northwest,2.1,No
2022/10/11,05:40,0.147,0.134,0.215,0.206,0.209,0.118,0.075,north-northwest,2.0,No
2022/10/11,05:50,0.148,0.134,0.213,0.207,0.211,0.116,0.077,northwest,2.5,No
2022/10/11,06:00,0.147,0.134,0.214,0.206,0.210,0.118,0.075,north-northwest,1.4,No
2022/10/11,06:10,0.147,0.134,0.213,0.208,0.213,0.118,0.075,west-northwest,0.7,Yes
2022/10/11,06:20,0.148,0.135,0.215,0.206,0.209,0.117,0.076,-,CALM,No
2022/10/11,06:30,0.148,0.134,0.214,0.207,0.211,0.117,0.076,-,CALM,Yes
2022/10/11,06:40,0.147,0.133,0.214,0.207,0.211,0.117,0.076,north-northeast,1.7,No
2022/10/11,06:50,0.148,0.135,0.214,0.208,0.211,0.117,0.076,north,0.8,No
2022/10/11,07:00,0.147,0.133,0.215,0.207,0.212,0.118,0.075,north,1.2,No
2022/10/11,07:10,0.148,0.133,0.214,0.206,0.210,0.117,0.076,north,1.2,No
2022/10/11,07:20,0.147,0.134,0.215,0.207,0.212,0.117,0.075,north,1.2,No
2022/10/11,07:30,0.148,0.134,0.213,0.206,0.209,0.117,0.076,north-northwest,2.2,No
2022/10/11,07:40,0.147,0.134,0.215,0.207,0.212,0.116,0.076,north,0.9,No
2022/10/11,07:50,0.148,0.134,0.212,0.206,0.210,0.118,0.076,north-northwest,1.4,No
2022/10/11,08:00,0.146,0.133,0.214,0.208,0.211,0.116,0.076,north,1.1,No
2022/10/11,08:10,0.148,0.133,0.214,0.206,0.211,0.117,0.076,north,1.0,No
2022/10/11,08:20,0.148,0.133,0.215,0.207,0.209,0.118,0.076,north-northwest,1.0,No
2022/10/11,08:30,0.147,0.134,0.214,0.207,0.211,0.116,0.075,west-northwest,1.0,No
2022/10/11,08:40,0.148,0.133,0.214,0.207,0.210,0.117,0.076,west-northwest,1.5,No
2022/10/11,08:50,0.147,0.134,0.215,0.207,0.211,0.117,0.076,north-northwest,1.0,No
2022/10/11,09:00,0.147,0.134,0.213,0.206,0.210,0.117,0.076,west,1.2,No
2022/10/11,09:10,0.148,0.133,0.216,0.208,0.210,0.118,0.077,northwest,1.8,No
2022/10/11,09:20,0.146,0.133,0.213,0.206,0.210,0.116,0.076,northwest,1.1,No
2022/10/11,09:30,0.148,0.133,0.213,0.206,0.211,0.118,0.076,west-northwest,2.4,No
2022/10/11,09:40,0.147,0.133,0.214,0.208,0.209,0.117,0.076,west-northwest,1.3,No
2022/10/11,09:50,0.147,0.133,0.214,0.207,0.212,0.117,0.075,west-northwest,3.3,No
2022/10/11,10:00,0.147,0.133,0.214,0.207,0.212,0.118,0.075,west-northwest,3.8,No
2022/10/11,10:10,0.147,0.135,0.214,0.207,0.210,0.117,0.076,northwest,2.6,No
2022/10/11,10:20,0.147,0.134,0.212,0.205,0.209,0.117,0.076,west-northwest,2.1,No
2022/10/11,10:30,0.147,0.133,0.216,0.207,0.211,0.117,0.075,west-northwest,2.4,No
2022/10/11,10:40,0.146,0.134,0.215,0.208,0.209,0.118,0.075,west-northwest,4.1,No
2022/10/11,10:50,0.146,0.133,0.213,0.206,0.208,0.117,0.076,northwest,5.4,No
2022/10/11,11:00,0.148,0.133,0.213,0.205,0.209,0.117,0.076,west-northwest,4.1,No
2022/10/11,11:10,0.146,0.135,0.215,0.208,0.211,0.117,0.076,west-northwest,6.4,No
2022/10/11,11:20,0.148,0.133,0.214,0.207,0.210,0.117,0.075,west-northwest,7.3,No
2022/10/11,11:30,0.149,0.133,0.212,0.204,0.209,0.117,0.075,west-northwest,6.6,No
2022/10/11,11:40,0.147,0.134,0.215,0.205,0.208,0.117,0.075,west-northwest,7.7,No
2022/10/11,11:50,0.147,0.134,0.216,0.205,0.209,0.117,0.074,west-northwest,8.4,No
2022/10/11,12:00,0.146,0.134,0.216,0.207,0.209,0.117,0.075,west,6.1,No
2022/10/11,12:10,0.146,0.133,0.214,0.209,0.212,0.117,0.076,northwest,7.9,Yes
2022/10/11,12:20,0.148,0.132,0.213,0.207,0.213,0.117,0.075,west-northwest,8.8,No
2022/10/11,12:30,0.149,0.131,0.213,0.205,0.212,0.117,0.076,west-northwest,8.6,No
2022/10/11,12:40,0.147,0.135,0.213,0.205,0.209,0.118,0.075,west-northwest,10.3,No
2022/10/11,12:50,0.146,0.134,0.214,0.207,0.209,0.117,0.076,west-northwest,9.5,No
2022/10/11,13:00,0.147,0.134,0.217,0.209,0.210,0.118,0.077,northwest,6.6,No
2022/10/11,13:10,0.149,0.134,0.217,0.208,0.209,0.119,0.076,west-northwest,6.8,No
2022/10/11,13:20,0.148,0.133,0.214,0.207,0.214,0.119,0.076,west-northwest,6.6,No
2022/10/11,13:30,0.148,0.132,0.215,0.206,0.212,0.118,0.076,west,10.1,No
2022/10/11,13:40,0.148,0.134,0.214,0.206,0.211,0.118,0.076,west-northwest,10.1,No
2022/10/11,13:50,0.147,0.134,0.213,0.206,0.210,0.118,0.075,west-northwest,7.1,No
2022/10/11,14:00,0.147,0.135,0.214,0.208,0.210,0.118,0.076,west-northwest,6.5,No
2022/10/11,14:10,0.148,0.134,0.215,0.209,0.208,0.118,0.076,west-northwest,6.7,No
2022/10/11,14:20,0.148,0.134,0.217,0.207,0.208,0.118,0.076,west-northwest,8.1,No
2022/10/11,14:30,0.148,0.133,0.216,0.207,0.213,0.118,0.076,west-northwest,8.9,No
2022/10/11,14:40,0.147,0.135,0.216,0.208,0.212,0.117,0.076,west-northwest,6.2,No
2022/10/11,14:50,0.148,0.135,0.218,0.208,0.211,0.118,0.076,west-northwest,7.0,No
2022/10/11,15:00,0.149,0.134,0.215,0.208,0.211,0.118,0.076,west-northwest,8.9,No
2022/10/11,15:10,0.149,0.135,0.218,0.209,0.212,0.118,0.077,west,9.2,No
2022/10/11,15:20,0.148,0.135,0.217,0.208,0.211,0.118,0.076,west-northwest,6.6,No
2022/10/11,15:30,0.150,0.134,0.216,0.208,0.213,0.119,0.076,west-northwest,6.4,No
2022/10/11,15:40,0.148,0.136,0.217,0.209,0.212,0.118,0.076,west-northwest,8.9,No
2022/10/11,15:50,0.149,0.134,0.216,0.207,0.210,0.118,0.075,west-northwest,9.8,No
2022/10/11,16:00,0.149,0.134,0.217,0.209,0.212,0.118,0.075,west-northwest,9.2,No
2022/10/11,16:10,0.149,0.135,0.216,0.209,0.210,0.118,0.076,northwest,6.4,No
2022/10/11,16:20,0.150,0.134,0.217,0.209,0.212,0.117,0.075,northwest,6.1,No
2022/10/11,16:30,0.148,0.135,0.215,0.208,0.212,0.119,0.076,northwest,7.3,No
2022/10/11,16:40,0.149,0.134,0.217,0.207,0.213,0.117,0.076,northwest,6.8,No
2022/10/11,16:50,0.149,0.135,0.216,0.209,0.213,0.118,0.076,northwest,8.1,No
2022/10/11,17:00,0.149,0.134,0.217,0.208,0.211,0.119,0.076,northwest,7.7,No
2022/10/11,17:10,0.149,0.134,0.216,0.210,0.213,0.119,0.076,northwest,7.6,No
2022/10/11,17:20,0.148,0.134,0.217,0.209,0.210,0.118,0.076,northwest,7.8,No
2022/10/11,17:30,0.150,0.135,0.215,0.208,0.213,0.118,0.076,west-northwest,7.3,No
2022/10/11,17:40,0.149,0.134,0.217,0.209,0.211,0.118,0.076,west-northwest,10.6,No
2022/10/11,17:50,0.148,0.135,0.216,0.210,0.212,0.119,0.076,west-northwest,11.4,No
2022/10/11,18:00,0.148,0.135,0.216,0.209,0.210,0.117,0.076,west-northwest,11.2,No
2022/10/11,18:10,0.149,0.134,0.216,0.210,0.212,0.118,0.076,west-northwest,10.3,No
2022/10/11,18:20,0.149,0.134,0.217,0.210,0.212,0.119,0.076,west-northwest,8.4,No
2022/10/11,18:30,0.149,0.136,0.216,0.209,0.213,0.118,0.076,west-northwest,10.3,No
2022/10/11,18:40,0.150,0.134,0.216,0.208,0.212,0.118,0.077,west-northwest,11.2,No
2022/10/11,18:50,0.150,0.135,0.217,0.209,0.212,0.118,0.076,west-northwest,6.4,No
2022/10/11,19:00,0.149,0.135,0.215,0.210,0.212,0.118,0.075,west-northwest,6.0,No
2022/10/11,19:10,0.149,0.135,0.218,0.209,0.212,0.117,0.076,west-northwest,7.0,No
2022/10/11,19:20,0.150,0.135,0.216,0.209,0.211,0.118,0.076,northwest,6.9,No
2022/10/11,19:30,0.149,0.134,0.217,0.209,0.214,0.118,0.075,west-northwest,5.7,No
2022/10/11,19:40,0.151,0.134,0.216,0.210,0.211,0.118,0.077,west-northwest,7.6,No
2022/10/11,19:50,0.149,0.135,0.216,0.209,0.213,0.118,0.077,west-northwest,8.1,No
2022/10/11,20:00,0.150,0.136,0.218,0.210,0.211,0.119,0.076,west-northwest,6.9,No
2022/10/11,20:10,0.149,0.135,0.216,0.209,0.213,0.118,0.077,west-northwest,7.2,No
2022/10/11,20:20,0.149,0.135,0.218,0.209,0.212,0.118,0.076,west-northwest,6.0,No
2022/10/11,20:30,0.150,0.135,0.215,0.208,0.213,0.118,0.076,northwest,6.3,No
2022/10/11,20:40,0.149,0.136,0.218,0.210,0.211,0.118,0.077,northwest,6.7,No
2022/10/11,20:50,0.148,0.135,0.215,0.208,0.213,0.118,0.076,northwest,6.2,No
2022/10/11,21:00,0.149,0.134,0.217,0.209,0.211,0.119,0.076,northwest,5.7,No
2022/10/11,21:10,0.150,0.134,0.216,0.209,0.213,0.118,0.076,north-northwest,4.9,No
2022/10/11,21:20,0.149,0.135,0.217,0.209,0.211,0.119,0.077,north-northwest,5.8,No
2022/10/11,21:30,0.148,0.134,0.218,0.210,0.214,0.118,0.076,north-northwest,5.5,No
2022/10/11,21:40,0.149,0.135,0.217,0.210,0.211,0.119,0.076,north,3.9,No
2022/10/11,21:50,0.148,0.135,0.217,0.210,0.213,0.118,0.077,north-northwest,4.0,No
2022/10/11,22:00,0.150,0.135,0.216,0.208,0.211,0.119,0.076,northwest,5.9,No
2022/10/11,22:10,0.150,0.135,0.217,0.211,0.214,0.118,0.076,northwest,5.9,No
2022/10/11,22:20,0.150,0.135,0.218,0.209,0.211,0.119,0.076,northwest,4.1,No
2022/10/11,22:30,0.149,0.135,0.216,0.210,0.214,0.118,0.077,north,1.4,No
2022/10/11,22:40,0.151,0.135,0.217,0.209,0.212,0.118,0.076,-,CALM,No
2022/10/11,22:50,0.148,0.136,0.216,0.210,0.213,0.119,0.077,east-northeast,0.9,No
2022/10/11,23:00,0.150,0.135,0.218,0.209,0.210,0.118,0.077,east-northeast,1.7,No
2022/10/11,23:10,0.150,0.134,0.217,0.209,0.213,0.119,0.075,north-northeast,1.6,No
2022/10/11,23:20,0.149,0.135,0.217,0.209,0.210,0.118,0.076,north-northeast,2.0,No
2022/10/11,23:30,0.149,0.134,0.218,0.209,0.212,0.118,0.076,north,2.2,No
2022/10/11,23:40,0.150,0.135,0.216,0.210,0.211,0.119,0.077,north,3.0,No
2022/10/11,23:50,0.149,0.135,0.217,0.208,0.212,0.119,0.076,north,3.3,No
